When you browse on this site, cookies collect data to enhance your experience and personalize the content and advertising you see.
Visit our Privacy Policy to learn more. By continuing to use the site, you agree to this use of cookies and data.
  • Em Portugal
  • Lista de países
  • Para 7 dias
  • Temperatura da água
  • Mapas de satélite
  • Mapa do tempo
  • Widgets de tempo
  • user-avatar
    Iniciar Sessão

    Previsão horária em Rudashkovo

    Hoje, 20 Janeiro, Domingo

    Tempo Temperatura Precipitação Vento Pressão Humidade
    00:00 -9°C° 0 mm 4 m/s 745 mmHg 92%
    01:00 -10°C° 0 mm 4 m/s 745 mmHg 93%
    02:00 -10°C° 0 mm 4 m/s 745 mmHg 93%
    03:00 -11°C° 0 mm 5 m/s 745 mmHg 92%
    04:00 -11°C° 0 mm 5 m/s 744 mmHg 91%
    05:00 -11°C° 0 mm 6 m/s 744 mmHg 90%
    06:00 -10°C° 0 mm 6 m/s 744 mmHg 90%
    07:00 -11°C° 0 mm 7 m/s 743 mmHg 89%
    08:00 -9°C° 0 mm 6 m/s 743 mmHg 88%
    09:00 -9°C° 0 mm 7 m/s 743 mmHg 88%
    10:00 -8°C° 0 mm 7 m/s 743 mmHg 88%
    11:00 -8°C° 0 mm 7 m/s 743 mmHg 88%
    12:00 -8°C° 0.1 mm 7 m/s 742 mmHg 88%
    13:00 -8°C° 0.1 mm 7 m/s 742 mmHg 89%
    14:00 -8°C° 0.1 mm 7 m/s 742 mmHg 89%
    15:00 -8°C° 0.4 mm 7 m/s 742 mmHg 90%
    16:00 -8°C° 0.4 mm 6 m/s 742 mmHg 91%
    17:00 -9°C° 0.4 mm 6 m/s 741 mmHg 92%
    18:00 -9°C° 0.3 mm 6 m/s 741 mmHg 92%
    19:00 -8°C° 0.3 mm 5 m/s 741 mmHg 93%
    20:00 -8°C° 0.3 mm 5 m/s 741 mmHg 93%
    21:00 -8°C° 0 mm 4 m/s 741 mmHg 94%
    22:00 -8°C° 0 mm 4 m/s 741 mmHg 94%
    23:00 -8°C° 0 mm 3 m/s 741 mmHg 95%

    Amanhã, 21 Janeiro, Segunda-feira

    Tempo Temperatura Precipitação Vento Pressão Humidade
    00:00 -9°C° 0 mm 3 m/s 741 mmHg 96%
    01:00 -10°C° 0 mm 3 m/s 741 mmHg 96%
    02:00 -13°C° 0 mm 3 m/s 741 mmHg 96%
    03:00 -13°C° 0 mm 3 m/s 741 mmHg 96%
    04:00 -14°C° 0 mm 3 m/s 741 mmHg 96%
    05:00 -15°C° 0 mm 3 m/s 741 mmHg 96%
    06:00 -15°C° 0 mm 3 m/s 742 mmHg 96%
    07:00 -14°C° 0 mm 3 m/s 742 mmHg 96%
    08:00 -14°C° 0 mm 3 m/s 742 mmHg 96%
    09:00 -13°C° 0 mm 3 m/s 742 mmHg 96%
    10:00 -12°C° 0 mm 3 m/s 743 mmHg 95%
    11:00 -10°C° 0 mm 3 m/s 743 mmHg 94%
    12:00 -11°C° 0 mm 4 m/s 743 mmHg 92%
    13:00 -11°C° 0 mm 5 m/s 743 mmHg 90%
    14:00 -11°C° 0 mm 6 m/s 743 mmHg 87%
    15:00 -12°C° 0 mm 5 m/s 743 mmHg 88%
    16:00 -12°C° 0 mm 4 m/s 744 mmHg 88%
    17:00 -14°C° 0 mm 4 m/s 744 mmHg 88%
    18:00 -15°C° 0 mm 3 m/s 744 mmHg 90%
    19:00 -16°C° 0 mm 3 m/s 744 mmHg 92%
    20:00 -18°C° 0 mm 3 m/s 745 mmHg 93%
    21:00 -18°C° 0 mm 3 m/s 745 mmHg 94%
    22:00 -18°C° 0 mm 2 m/s 745 mmHg 95%
    23:00 -19°C° 0 mm 2 m/s 746 mmHg 95%

    Depois de amanhã, 22 Janeiro, Terça-feira

    Tempo Temperatura Precipitação Vento Pressão Humidade
    00:00 -19°C° 0 mm 2 m/s 746 mmHg 96%
    01:00 -20°C° 0 mm 2 m/s 746 mmHg 97%
    02:00 -18°C° 0 mm 1 m/s 747 mmHg 97%
    03:00 -18°C° 0 mm 1 m/s 747 mmHg 98%
    04:00 -19°C° 0 mm 1 m/s 747 mmHg 98%
    05:00 -19°C° 0 mm 1 m/s 747 mmHg 99%
    06:00 -18°C° 0 mm 1 m/s 747 mmHg 99%
    07:00 -17°C° 0 mm 1 m/s 747 mmHg 99%
    08:00 -16°C° 0 mm 1 m/s 747 mmHg 98%
    09:00 -14°C° 0 mm 1 m/s 747 mmHg 97%
    10:00 -14°C° 0 mm 2 m/s 748 mmHg 97%
    11:00 -13°C° 0 mm 2 m/s 748 mmHg 96%
    12:00 -12°C° 0 mm 2 m/s 747 mmHg 95%
    13:00 -10°C° 0 mm 2 m/s 747 mmHg 94%
    14:00 -10°C° 0 mm 3 m/s 747 mmHg 93%
    15:00 -12°C° 0 mm 3 m/s 747 mmHg 94%
    16:00 -10°C° 0 mm 2 m/s 747 mmHg 95%
    17:00 -10°C° 0 mm 2 m/s 747 mmHg 96%
    18:00 -10°C° 0.1 mm 2 m/s 747 mmHg 96%
    19:00 -12°C° 0.1 mm 3 m/s 747 mmHg 96%
    20:00 -12°C° 0.1 mm 3 m/s 747 mmHg 96%
    21:00 -10°C° 0 mm 3 m/s 747 mmHg 96%
    22:00 -10°C° 0 mm 3 m/s 747 mmHg 95%
    23:00 -9°C° 0 mm 3 m/s 747 mmHg 95%

    23 Janeiro, Quarta-feira

    Tempo Temperatura Precipitação Vento Pressão Humidade
    00:00 -11°C° 0 mm 4 m/s 747 mmHg 95%
    01:00 -11°C° 0 mm 4 m/s 747 mmHg 95%
    02:00 -11°C° 0 mm 4 m/s 747 mmHg 96%
    03:00 -12°C° 0 mm 4 m/s 746 mmHg 95%
    04:00 -14°C° 0 mm 4 m/s 746 mmHg 95%
    05:00 -15°C° 0 mm 4 m/s 746 mmHg 95%
    06:00 -16°C° 0 mm 4 m/s 746 mmHg 96%
    07:00 -16°C° 0 mm 3 m/s 746 mmHg 97%
    08:00 -17°C° 0 mm 3 m/s 746 mmHg 97%
    09:00 -16°C° 0 mm 3 m/s 746 mmHg 96%
    10:00 -16°C° 0 mm 4 m/s 747 mmHg 96%
    11:00 -16°C° 0 mm 4 m/s 747 mmHg 95%
    12:00 -15°C° 0 mm 4 m/s 747 mmHg 94%
    13:00 -15°C° 0 mm 4 m/s 747 mmHg 94%
    14:00 -14°C° 0 mm 4 m/s 746 mmHg 93%
    15:00 -15°C° 0 mm 4 m/s 746 mmHg 94%
    16:00 -16°C° 0 mm 4 m/s 746 mmHg 95%
    17:00 -16°C° 0 mm 3 m/s 746 mmHg 96%
    18:00 -17°C° 0 mm 3 m/s 746 mmHg 95%
    19:00 -18°C° 0 mm 4 m/s 746 mmHg 95%
    20:00 -18°C° 0 mm 4 m/s 746 mmHg 94%
    21:00 -17°C° 0 mm 3 m/s 746 mmHg 93%
    22:00 -18°C° 0 mm 3 m/s 746 mmHg 92%
    23:00 -18°C° 0 mm 3 m/s 746 mmHg 91%

    24 Janeiro, Quinta-feira

    Tempo Temperatura Precipitação Vento Pressão Humidade
    00:00 -17°C° 0 mm 3 m/s 746 mmHg 91%
    01:00 -16°C° 0 mm 3 m/s 746 mmHg 91%
    02:00 -16°C° 0 mm 4 m/s 746 mmHg 91%
    03:00 -15°C° 0 mm 3 m/s 745 mmHg 92%
    04:00 -15°C° 0 mm 3 m/s 745 mmHg 93%
    05:00 -14°C° 0 mm 3 m/s 745 mmHg 94%
    06:00 -14°C° 0.1 mm 3 m/s 745 mmHg 94%
    07:00 -14°C° 0.1 mm 3 m/s 745 mmHg 94%
    08:00 -14°C° 0.1 mm 3 m/s 745 mmHg 94%
    09:00 -14°C° 0.2 mm 3 m/s 745 mmHg 95%
    10:00 -13°C° 0.2 mm 3 m/s 745 mmHg 95%
    11:00 -13°C° 0.2 mm 3 m/s 745 mmHg 95%
    12:00 -12°C° 0 mm 3 m/s 744 mmHg 95%
    13:00 -12°C° 0 mm 3 m/s 744 mmHg 94%
    14:00 -12°C° 0 mm 3 m/s 744 mmHg 94%
    15:00 -12°C° 0.1 mm 3 m/s 744 mmHg 94%
    16:00 -12°C° 0.1 mm 3 m/s 743 mmHg 95%
    17:00 -12°C° 0.1 mm 3 m/s 743 mmHg 95%
    18:00 -10°C° 0.1 mm 3 m/s 743 mmHg 95%
    19:00 -10°C° 0.1 mm 3 m/s 743 mmHg 95%
    20:00 -10°C° 0.1 mm 3 m/s 743 mmHg 95%
    21:00 -9°C° 0.2 mm 3 m/s 743 mmHg 95%
    22:00 -9°C° 0.2 mm 3 m/s 743 mmHg 95%
    23:00 -9°C° 0.2 mm 3 m/s 743 mmHg 96%

    25 Janeiro, Sexta-feira

    Tempo Temperatura Precipitação Vento Pressão Humidade
    00:00 -9°C° 0.1 mm 3 m/s 743 mmHg 96%
    01:00 -9°C° 0.1 mm 3 m/s 743 mmHg 96%
    02:00 -9°C° 0.1 mm 3 m/s 743 mmHg 96%
    03:00 -9°C° 0.1 mm 3 m/s 743 mmHg 96%
    04:00 -9°C° 0.1 mm 3 m/s 743 mmHg 96%
    05:00 -9°C° 0.1 mm 3 m/s 743 mmHg 96%
    06:00 -9°C° 0.1 mm 3 m/s 743 mmHg 96%
    07:00 -9°C° 0.1 mm 3 m/s 743 mmHg 96%
    08:00 -9°C° 0.1 mm 3 m/s 743 mmHg 96%
    09:00 -9°C° 0.1 mm 3 m/s 743 mmHg 96%
    10:00 -8°C° 0.1 mm 3 m/s 743 mmHg 96%
    11:00 -8°C° 0.1 mm 3 m/s 743 mmHg 95%
    12:00 -8°C° 0.2 mm 3 m/s 743 mmHg 95%
    13:00 -6°C° 0.2 mm 2 m/s 743 mmHg 95%
    14:00 -6°C° 0.2 mm 2 m/s 743 mmHg 95%
    15:00 -6°C° 0.1 mm 2 m/s 743 mmHg 95%
    16:00 -6°C° 0.1 mm 2 m/s 743 mmHg 96%
    17:00 -7°C° 0.1 mm 2 m/s 743 mmHg 96%
    18:00 -7°C° 0.1 mm 2 m/s 743 mmHg 96%
    19:00 -7°C° 0.1 mm 2 m/s 743 mmHg 97%
    20:00 -7°C° 0.1 mm 2 m/s 743 mmHg 97%
    21:00 -7°C° 0.2 mm 2 m/s 743 mmHg 97%
    22:00 -6°C° 0.2 mm 1 m/s 742 mmHg 97%
    23:00 -6°C° 0.2 mm 1 m/s 742 mmHg 97%
    Mostrar mais